Facebook Twitter

Wetterstation Hurguada

aktuelles Wetter
  Temperatur Wetter Niederschlag Luftdruck Wind
Sa, 17:00 Uhr 32° wolkenlos 0 mm 1006 hPa 19 km/h N
Sa, 14:00 Uhr 33° wolkenlos 0 mm 1006.5 hPa 17 km/h N
Sa, 11:00 Uhr 32° wolkenlos 0 mm 1007.9 hPa 24 km/h N
Sa, 08:00 Uhr 29° wolkenlos 0 mm 1010.8 hPa 24 km/h N
Sa, 05:00 Uhr 26° wolkenlos 0 mm 1007.5 hPa 5 km/h N
Sa, 02:00 Uhr 28° wolkenlos 0 mm 1006.7 hPa 22 km/h NW
Fr, 23:00 Uhr 30° wolkenlos 0.0 mm 1007.4 hPa 20 km/h W
Fr, 20:00 Uhr 31° wolkenlos 0 mm 1006.3 hPa 22 km/h NW
Fr, 17:00 Uhr 32° wolkenlos 0 mm 1005.6 hPa 21 km/h N
Fr, 14:00 Uhr 34° Dunst 0 mm 1006.7 hPa 22 km/h N
Fr, 11:00 Uhr 32° Dunst 0 mm 1008.1 hPa 26 km/h N
Fr, 08:00 Uhr 30° wolkenlos 0 mm 1008.8 hPa 28 km/h NW
Fr, 05:00 Uhr 26° wolkenlos 0 mm 1007.8 hPa 33 km/h NW
Fr, 02:00 Uhr 28° wolkenlos 0 mm 1008 hPa 30 km/h NW
Do, 23:00 Uhr 30° wolkenlos 0 mm 1008.6 hPa 22 km/h W
Do, 20:00 Uhr 32° wolkenlos 0 mm 1007.9 hPa 30 km/h NW
Do, 17:00 Uhr 33° wolkenlos 0 mm 1027 hPa 26 km/h N
Do, 14:00 Uhr 34° wolkenlos 0 mm 1008.7 hPa 28 km/h N
Do, 11:00 Uhr 31° wolkenlos 0 mm 1010.7 hPa 33 km/h N
Do, 08:00 Uhr 29° wolkenlos 0 mm 1011 hPa 13 km/h N

Alle Zeitangaben MESZ